Regional Weather Roundup
Issued by NWS Bismarck, ND

Home | Current Version | Previous Version | Text Only | Print | Product List | Glossary On
Versions: 1 2 3 4 5 6 7 8 9 10 11 12 13 14 15 16 17 18 19 20 21 22 23 24 25 26 27 28 29 30 31 32 33 34 35 36 37 38 39 40 41 42 43 44 45 46 47 48 49 50
000
ASUS43 KBIS 240902
RWRBIS

NWR BROADCAST TEXT
NATIONAL WEATHER SERVICE BISMARCK ND
400 AM CDT TUE APR 24 2018

NOTE: "FAIR" INDICATES FEW OR NO CLOUDS BELOW 12,000 FEET WITH NO
SIGNIFICANT WEATHER AND/OR OBSTRUCTIONS TO VISIBILITY.


CITY           SKY/WX    TMP DP  RH WIND       PRES   REMARKS
WILLISTON      PTCLDY    25  21  85 CALM      30.44S
MINOT          CLOUDY    32  24  72 NW9       30.38S
MINOT AFB      CLOUDY    27  22  83 NW8       30.38R WCI  19
BISMARCK       LGT RAIN  41  35  79 N13G24    30.36R
DICKINSON      CLOUDY    37  30  75 N7        30.37R
GARRISON         N/A     36  30  79 N12       30.37S
HETTINGER ARPT MIX PCPN  33  31  92 N22G30    30.37R
JAMESTOWN      LGT RAIN  43  35  73 N13       30.29R
CARRINGTON     LGT RAIN  41  36  81 N9        30.34R
HAZEN          CLOUDY    39  34  81 N6        30.39S
LINTON           N/A    N/A N/A N/A N16G22    30.33R
MANDAN         FAIR      37  37 100 N15G26    30.36R FOG
OAKES            N/A     46  39  76 N17       30.24R
RUGBY            N/A     32  27  80 NW9       30.36R
STANLEY          N/A     32  23  69 N5        30.43R
TIOGA          FAIR      28  25  86 W6        30.43R
WATFORD CITY   FAIR      28  27  93 CALM      30.43R
$$

CITY           SKY/WX    TMP DP  RH WIND       PRES   REMARKS
GRAND FORKS    CLOUDY    42  36  79 N9        30.29R
GRAND FORKS AF NOT AVBL
DEVILS LAKE    CLOUDY    39  31  72 N10       30.34R
FARGO          LGT RAIN  47  38  71 N16       30.23R
CANDO          FAIR      36  28  75 N7        30.37R
CAVALIER         N/A     41  32  70 N12       30.32R
GRAFTON        FAIR      41  34  75 N13       30.33R
GWINNER          N/A     46  41  81 N18       30.22R
LANGDON        FAIR      36  36 100 N10       30.32S
ROLLA          FAIR      32  28  86 NW9       30.36R
WALHALLA       FAIR      39  32  75 N10       30.33R
$$

CITY           SKY/WX    TMP DP  RH WIND       PRES   REMARKS
ABERDEEN       LGT RAIN  48  45  89 N15       30.22R
MOBRIDGE       RAIN      43  40  89 N23G32    30.21R
BUFFALO          N/A     35 N/A N/A N13       30.34R
RAPID CITY     LGT SNOW  34  32  92 NW30G40   30.32R FOG
GLASGOW        CLEAR     36  24  62 S5        30.44R
SIDNEY         CLEAR     32  26  78 CALM      30.45R
WOLF POINT     PTCLDY    29  23  78 CALM      30.46R
GLENDIVE       PTCLDY    35  31  85 NW10      30.45S
MILES CITY     CLOUDY    35  35 100 W7        30.47S
BAKER          CLOUDY    33  33 100 NW8       30.44S
$$

CITY           SKY/WX    TMP DP  RH WIND       PRES   REMARKS
BILLINGS       CLOUDY    34  34 100 SW9       30.48F
GREAT FALLS    CLEAR     28  23  81 VRB3      30.46R
$$




USA.gov is the U.S. government's official web portal to all federal, state and local government web resources and services.